Flag Weather past 2 weeks in Ramat Gan, Israel

Now
61 °F

Partly sunny.


Feels Like: 61 °F
Forecast: 56 / 67 °F
Wind: 6 mph from Southwest

Location: Dov Airport

Current Time: Nov 24, 2014 at 10:26:20 AM

Latest Report: Nov 24, 2014 at 9:50 AM


Visibility: N/A

Pressure: 29.95 "Hg

Humidity: 83%

Dew point: 55 °F

Location of Ramat GanLocation

Historic Weather in Ramat Gan — Graph

°F

Ramat Gan temperature yesterday

Maximum temperature yesterday: 72 °F (at 11:50 AM)
Minimum temperature yesterday: 57 °F (at 9:50 PM)
Average temperature yesterday: 63 °F

Past Weeks' High & Low Weather Summary

 TemperatureHumidityPressure
High82 °F (Nov 19, 1:50 PM)94% (Nov 10, 8:50 PM)30.15 "Hg (Nov 10, 8:50 PM)
Low57 °F (Nov 23, 9:50 PM)17% (Nov 9, 8:50 AM)29.86 "Hg (Nov 14, 12:50 PM)
Average70 °F66%29.96 "Hg
* Reported Nov 9 8:50 AM — Nov 24 8:50 AM, Ramat Gan, Weather by CustomWeather, © 2014

Note: Actual official high and low records may vary slightly from our data, if they occured in-between our weather recording intervals... More about our weather records

Advertising

Ramat Gan weather history for previous 24 hours

 ConditionsComfort  
Time TempWeatherWind HumidityBarometerVisibility
8:50 AM
Nov 24
61 °FBroken clouds.3 mph83%29.92 "HgN/A
7:50 AM59 °FScattered clouds.8 mph88%29.89 "HgN/A
6:50 AM57 °FScattered clouds.9 mph88%29.89 "HgN/A
5:50 AM57 °FPassing clouds.9 mph88%29.89 "HgN/A
4:50 AM57 °FPassing clouds.9 mph88%29.89 "HgN/A
11:00 PM
Nov 23
57 °FPassing clouds.8 mph94%29.92 "HgN/A
9:50 PM57 °FPassing clouds.7 mph94%29.92 "HgN/A
8:50 PM59 °FPassing clouds.7 mph88%29.92 "HgN/A
7:57 PM61 °FThunderstorms. Passing clouds.8 mph83%29.92 "HgN/A
6:50 PM61 °FPassing clouds.10 mph77%29.92 "HgN/A
5:50 PM61 °FPassing clouds.8 mph77%29.92 "HgN/A
4:50 PM63 °FPassing clouds.8 mph77%29.92 "HgN/A
3:50 PM63 °FScattered clouds.8 mph77%29.92 "HgN/A
2:50 PM66 °FPartly sunny.10 mph68%29.92 "HgN/A
1:50 PM66 °FPartly sunny.9 mph68%29.92 "HgN/A
12:50 PM70 °FPassing clouds.3 mph53%29.95 "HgN/A
11:50 AM72 °FPassing clouds.2 mph53%29.95 "HgN/A
10:50 AM68 °FScattered clouds.7 mph60%29.98 "HgN/A
Weather by CustomWeather, © 2014

See weather overviewHow to use our weather pages